SCP
0 0 0 0 0 0 0 0 0 0 0 0 0 0 0 0 0 0 0 0 0 0 0 0 0 0 0 0 0 0 0 0 0 0 0 0 0 0 0 0 0 0 0 0 0 0 0
0 0 0 0 0 0 0 0 0 0 0 0 0 0 0 0 0 0 0 0 0 0 0 0 0 0 0 0 0 0 -0 0 0 0 0 0 0 0 0 0 0 0 0 0 0 0 0
0 0 0 0 0 0 0 0 0 0 0 0 0 0 0 0 0 0 0 0 0 0 0 0 0 0 0 -0 0 0 0 0 0 0 0 0 -0 0 0 0 0 0 0 0 0 0 0
0 0 0 0 0 0 0 0 0 0 0 0 0 0 0 0 0 0 0 0 0 0 0 0 0 0 0 0 0 0 -0 0 0 0 0 0 0 0 0 0 0 0 0 0 0 0 0
0 0 0 0 0 0 0 0 0 0 0 0 0 0 0 0 0 0 0 0 0 0 0 0 0 0 0 0 0 0 0 0 0 0 0 0 0 0 0 0 0 0 0 0 0 0 0
0 0 0 0 0 0 0 0 0 0 0 0 0 0 0 0 0 0 0 0 0 0 0 0 0 0 0 0 0 0 0 0 0 0 0 0 0 0 0 0 0 0 0 0 0 0 0
0 0 0 0 0 0 0 0 0 0 0 0 0 0 0 0 0 0 0 0 0 0 0 0 0 0 0 0 0 0 0 0 0 0 0 0 0 0 0 0 0 0 0 0 0 -0 0
0 0 0 0 0 0 0 0 0 0 0 0 0 0 0 0 0 0 0 0 0 0 0 0 0 0 0 0 0 0 0 0 0 0 0 0 0 0 0 0 0 0 0 0 -0 -0 0
0 0 0 0 0 0 0 0 0 0 0 0 0 0 0 0 0 0 0 0 0 0 0 0 0 0 0 0 0 0 0 0 0 0 0 0 0 0 0 0 0 0 0 0 0 0 0
0 0 0 0 0 0 0 0 0 0 0 0 0 0 0 0 0 0 0 0 0 0 0 0 0 0 0 0 -0 -0 -0 0 0 0 0 0 0 0 0 0 0 0 0 0 0 0 0
0 0 0 0 0 0 0 0 0 0 0 0 0 0 0 0 0 0 0 0 0 0 0 0 -0 0 0 0 0 0 -0 0 0 0 0 0 0 -0 0 0 -0 0 -0 0 0 0 0
0 0 0 0 0 0 0 0 0 0 0 0 0 0 0 0 0 0 0 0 0 0 0 0 0 0 0 0 -0 0 0 0 0 0 0 0 0 0 -0 0 -0 -0 0 0 0 0 0
0 0 0 0 0 0 0 0 0 0 0 0 0 0 0 0 0 0 0 0 0 0 0 0 0 0 0 0 -0 0 0 0 0 0 -0 0 0 -0 -0 -0 -0 0 0 0 0 0 0
0 0 0 0 0 0 0 0 0 0 0 0 0 0 0 0 0 0 0 0 0 0 0 0 -0 0 0 0 0 -0 -0 0 -0 0 0 0 0 -0 -0 0 0 0 0 0 0 0 0
0 0 0 0 0 0 0 0 0 0 0 0 0 0 0 0 -0 0 0 0 0 0 0 -0 -0 0 0 0 0 0 -0 0 0 -0 0 0 0 0 -0 0 0 0 0 0 0 0 0
0 0 0 0 0 0 0 0 0 0 0 0 0 0 0 -0 0 0 0 0 0 0 0 0 -0 -0 0 0 -0 0 -0 0 -0 -0 0 0 0 -0 0 0 0 0 0 0 -0 0 0
0 0 0 0 0 0 0 0 0 0 0 0 0 0 0 0 -0 -0 0 0 0 0 -0 0 -0 -0 -0 0 0 -0 -0 0 0 0 0 0 0 0 0 0 0 0 0 0 0 0 0
0 0 0 0 0 0 0 0 0 0 0 0 0 0 0 0 0 -0 0 0 0 -0 -0 0 -0 -0 0 0 -0 -0 -0 0 -0 0 0 0 0 0 0 0 0 0 0 0 0 0 0
0 0 0 0 0 0 0 0 0 0 0 0 0 0 0 -0 0 -0 -0 -0 -0 -0 0 -0 -0 -0 -0 0 -0 -0 -0 0 0 0 0 0 0 0 0 0 0 0 0 0 0 0 0
0 0 0 0 0 0 0 0 0 0 0 0 0 0 0 -0 -0 -0 -0 -0 -0 -0 -0 -0 0 0 0 0 0 0 0 0 0 0 0 0 0 0 0 0 0 0 0 0 0 0 0
0 0 0 0 0 0 0 0 0 0 0 0 0 0 0 -0 -0 -0 -0 0 -0 -0 -0 0 0 -0 0 0 0 0 0 0 0 0 0 0 0 0 0 0 0 0 0 0 0 0 0
0 0 0 0 0 0 0 0 0 0 0 0 0 0 0 -0 -0 -0 -0 -0 0 -0 -0 -0 -0 -0 0 -0 0 0 0 0 0 0 0 0 0 0 0 0 0 0 0 0 0 0 0
0 0 0 0 0 0 0 0 0 0 0 0 0 0 0 0 -0 -0 -0 -0 -0 -0 0 0 -0 0 -0 0 0 0 0 0 0 0 0 0 0 0 0 0 0 0 0 0 0 0 0
0 0 0 0 0 0 0 0 0 0 0 0 0 0 0 0 -0 -0 -0 -0 -0 -0 -0 -0 0 -0 0 -0 0 0 0 0 0 0 0 0 0 0 0 0 0 0 0 0 0 0 0
0 0 0 0 0 0 0 0 0 0 0 0 0 0 0 0 -0 -0 -0 -0 -0 -0 -0 -0 -0 0 -0 0 0 0 0 0 0 0 0 0 0 0 0 0 0 0 0 0 0 0 0
0 0 0 0 0 0 0 0 0 0 -0 0 0 0 0 0 0 -0 -0 -0 -0 -0 -0 0 -0 -0 0 0 0 0 0 0 0 0 0 0 0 0 0 0 0 0 0 0 0 0 0
0 0 0 0 0 0 0 0 0 0 -0 -0 0 0 0 0 0 -0 0 -0 -0 0 0 0 -0 0 0 0 0 0 0 0 0 0 0 0 0 0 0 0 0 0 0 -0 0 0 0
0 0 0 0 0 0 0 0 0 0 -0 -0 0 0 0 0 0 0 -0 -0 -0 0 0 0 0 0 0 0 0 0 0 0 0 0 0 0 0 0 0 0 0 0 0 0 0 -0 -0
0 0 0 0 0 0 0 0 0 0 -0 -0 -0 0 0 0 -0 -0 -0 -0 -0 -0 0 0 0 0 0 0 0 0 0 0 0 0 0 0 0 0 0 0 0 -0 0 -0 -0 -0 0
Wind_Speed_500mb
42 43 45 46 47 48 48 49 49 50 51 50 49 50 53 55 55 55 52 51 50 50 50 50 47 36 33 20 69 39 26 18 11 44 56 53 46 46 28 22 43 37 30 55 66 68 63
45 45 46 48 48 49 49 51 53 54 55 56 57 57 58 58 59 60 59 57 55 53 50 49 45 30 28 35 50 26 41 41 30 35 55 54 31 53 27 35 24 38 41 48 55 60 63
48 49 49 49 50 51 52 53 53 54 55 56 58 59 60 60 60 59 59 58 55 52 52 50 42 33 44 96 45 17 43 58 47 49 43 50 51 44 51 19 57 52 31 28 30 36 18
48 48 49 50 51 52 53 55 56 58 59 61 64 66 66 66 67 64 64 64 61 55 58 52 36 27 48 80 71 57 63 46 58 53 53 45 42 60 57 40 33 19 17 26 20 15 30
50 50 50 51 52 53 55 56 57 60 63 65 67 68 67 66 64 63 61 65 63 59 58 33 21 29 38 39 53 54 65 65 62 50 58 47 47 52 43 17 17 14 18 19 15 22 15
49 50 51 52 54 56 58 59 59 60 62 64 66 67 68 65 63 63 62 66 64 38 26 11 24 18 42 50 39 29 56 68 58 65 49 56 39 26 11 14 26 22 20 22 24 28 26
51 52 54 55 56 58 59 60 62 63 65 67 68 70 71 71 68 65 65 70 18 14 28 38 38 40 47 57 40 42 34 56 66 59 40 60 24 31 36 32 27 30 33 27 36 30 22
54 54 55 57 58 59 61 63 65 67 69 70 71 73 74 73 70 62 62 35 46 31 45 61 77 92 93 83 51 57 50 47 41 43 41 22 47 35 32 37 37 38 37 37 23 37 24
55 56 57 57 59 61 62 64 66 68 71 73 74 76 76 78 71 49 17 47 47 57 26 71 82 98 103 73 76 79 60 73 35 41 50 49 28 41 41 38 42 40 39 31 20 17 8
55 56 57 58 59 62 65 67 69 71 73 74 75 76 76 78 52 24 56 53 38 35 14 30 24 41 70 60 45 80 79 72 33 46 36 43 39 44 48 43 40 37 40 41 27 12 7
55 55 57 60 62 65 66 68 71 74 75 77 79 79 75 66 75 67 62 41 24 23 11 19 20 17 22 59 14 61 75 70 51 44 34 47 44 51 45 48 42 35 31 32 20 12 3
54 56 59 62 63 64 67 70 73 76 80 85 85 84 80 83 61 82 58 22 43 8 22 16 11 13 20 51 34 8 52 65 57 44 48 51 42 40 46 41 47 38 17 15 18 9 10
56 59 61 62 64 66 68 71 75 79 84 91 94 93 85 75 88 60 22 32 9 15 14 22 26 30 6 20 18 10 20 44 38 41 41 37 54 43 40 38 43 23 13 4 4 8 10
61 62 62 63 65 67 70 72 75 80 87 94 100 96 86 76 67 48 22 11 21 18 40 38 55 45 40 1 18 16 15 32 46 32 24 29 30 47 39 39 17 19 18 11 16 10 21
62 62 63 64 66 68 69 71 73 79 87 96 103 94 74 58 73 42 43 21 14 27 37 47 51 41 31 22 19 11 17 27 16 40 28 23 39 26 40 32 19 17 19 15 6 5 3
62 63 63 65 66 67 67 69 71 76 85 94 90 75 31 69 41 42 5 9 12 25 42 48 49 26 47 42 8 6 12 4 28 47 12 11 10 30 30 25 29 27 19 19 7 12 9
62 63 65 66 66 63 63 66 70 73 83 89 63 35 15 59 50 17 5 11 39 54 56 27 25 21 31 38 6 9 3 6 12 32 18 10 5 10 13 7 21 14 20 12 9 8 12
63 64 66 65 62 57 61 62 66 68 80 87 35 13 44 60 11 9 9 22 38 44 49 27 20 33 32 33 13 16 20 15 22 23 19 11 8 7 7 28 30 18 15 13 9 2 7
64 65 64 60 56 54 56 59 63 62 65 76 42 26 20 46 15 17 16 24 28 29 33 11 12 16 10 13 8 10 16 21 37 10 20 14 10 10 17 21 29 18 16 13 16 7 11
62 62 59 55 51 51 55 57 59 62 60 56 17 9 21 28 52 25 21 17 30 42 36 18 6 13 19 11 15 7 7 15 36 22 23 16 9 12 13 4 5 25 20 23 17 9 9
60 58 56 52 46 51 53 55 55 56 60 37 12 7 15 14 25 39 29 18 41 21 12 27 15 28 11 7 6 1 7 14 9 14 18 10 12 13 5 17 14 5 14 21 12 12 10
57 57 52 48 49 48 51 48 51 54 57 29 20 14 12 32 47 34 20 14 38 41 19 26 25 29 18 0 17 12 9 6 4 10 17 16 12 6 6 12 11 6 16 16 21 5 17
55 56 48 47 44 46 45 46 49 49 50 32 39 38 18 19 22 24 19 37 43 41 17 29 27 18 16 18 31 31 26 4 1 3 18 22 10 8 3 10 14 8 7 13 28 27 22
50 54 53 46 45 46 41 43 50 46 44 44 39 35 12 13 18 20 38 43 44 42 26 28 25 13 15 39 28 20 6 6 4 13 15 11 17 7 15 31 11 3 17 17 22 28 33
48 54 52 46 46 44 39 39 45 46 45 47 32 26 7 11 26 29 44 38 47 41 25 13 29 28 38 22 5 4 3 5 6 13 18 11 12 7 9 5 16 25 30 35 32 31 22
46 51 54 48 47 45 42 39 42 44 44 47 32 30 14 12 9 39 37 31 20 17 25 20 50 42 17 3 4 4 4 2 5 8 21 19 11 13 18 11 6 7 35 49 24 24 25
46 49 51 53 50 47 46 41 37 41 45 46 29 32 24 11 23 40 12 19 21 17 11 15 45 14 21 8 4 5 5 7 7 10 13 9 7 9 11 9 4 11 22 34 15 9 38
45 50 50 52 52 48 46 43 39 40 43 45 39 28 37 14 38 17 49 37 39 23 9 32 21 9 6 10 5 5 6 8 5 18 13 7 7 3 1 10 2 18 22 14 20 53 58
44 47 48 52 51 47 43 42 43 41 36 36 39 34 39 25 46 57 27 26 37 52 32 23 12 18 8 7 7 7 8 10 10 7 8 6 7 5 8 14 33 70 55 63 71 65 60
Wind_Direction_500mb
346 344 343 343 342 342 341 340 339 338 337 333 331 325 322 322 320 317 313 311 308 304 298 297 298 303 303 254 250 247 249 290 293 198 211 206 216 228 240 225 223 229 242 237 239 247 255
352 349 347 346 344 342 340 339 338 338 336 333 331 328 324 323 320 317 315 314 312 308 301 297 294 292 274 260 286 278 230 256 248 211 204 208 216 214 252 239 234 239 243 246 242 231 237
350 348 346 343 341 339 338 337 335 333 331 328 326 325 323 321 319 318 315 312 310 307 302 295 287 272 252 248 266 231 220 238 240 232 214 206 216 227 226 260 249 247 254 268 243 241 232
346 344 343 341 340 339 337 335 332 330 328 328 326 325 325 324 322 321 316 312 310 309 299 290 284 263 252 277 281 250 223 220 228 225 231 213 221 241 257 269 274 255 256 250 258 235 227
345 343 342 339 337 336 334 333 332 330 330 330 328 327 327 327 324 322 315 309 307 302 286 287 257 240 270 290 264 265 213 221 212 217 213 225 233 240 247 250 272 269 241 244 246 255 232
346 344 342 340 339 337 337 336 334 332 330 328 326 325 324 322 320 317 313 309 312 274 271 246 238 244 258 255 263 267 213 209 214 205 206 221 228 233 228 217 227 233 227 236 247 228 238
348 346 343 342 341 339 338 335 332 330 328 327 326 325 323 322 319 319 316 319 316 289 198 204 213 211 265 271 284 232 219 203 216 197 204 210 211 215 209 225 232 244 245 226 230 239 201
349 347 346 344 341 339 336 335 333 332 331 329 328 326 325 321 320 317 305 277 287 288 296 260 249 245 250 259 273 274 193 193 218 210 194 191 219 213 219 223 227 240 247 253 261 227 205
349 347 346 344 342 340 338 336 335 333 331 329 328 326 325 322 323 318 293 279 325 312 273 272 254 248 244 238 241 251 197 199 222 214 199 205 205 208 219 221 221 228 242 252 247 289 191
348 348 347 346 344 341 340 338 337 334 332 330 327 324 324 325 324 289 279 297 292 327 273 290 249 251 224 207 250 235 235 191 215 223 211 223 225 203 215 225 213 226 225 242 258 266 228
349 349 347 345 342 341 340 340 339 337 334 331 328 326 323 319 303 294 299 292 312 338 279 275 281 215 158 174 192 207 220 198 202 204 208 222 199 223 212 219 226 228 215 214 244 261 205
348 347 344 343 341 341 339 340 340 338 336 332 329 325 320 311 293 296 308 320 319 234 240 261 313 300 143 210 240 301 206 202 210 212 211 224 222 217 227 213 223 232 219 183 201 203 245
344 343 342 341 340 339 338 338 337 337 335 332 330 326 319 306 286 308 295 281 232 226 268 260 269 320 228 190 245 351 288 205 201 208 230 223 226 232 225 219 209 209 131 221 227 211 216
341 341 339 339 338 337 336 336 336 336 335 334 331 331 327 330 328 301 269 227 228 241 228 276 298 314 320 113 175 157 231 236 209 212 210 229 228 217 224 225 180 205 166 158 180 173 228
339 339 338 338 338 336 335 336 335 336 337 338 334 337 339 340 320 259 225 223 223 239 267 291 310 322 300 323 335 206 202 213 236 251 210 214 247 226 227 208 177 191 201 190 160 220 103
338 338 339 339 337 335 336 337 335 337 339 343 340 336 332 353 13 356 188 292 274 290 293 297 291 266 288 299 155 306 215 212 207 223 188 312 300 231 218 193 225 186 162 210 201 181 221
339 339 339 338 337 337 339 337 338 340 341 346 345 325 323 350 335 351 222 274 317 320 313 303 285 290 287 290 145 166 220 304 227 197 215 279 133 306 333 253 193 188 192 189 130 125 170
339 340 339 339 340 342 341 342 343 344 345 350 339 308 335 351 27 338 326 298 308 315 315 303 262 255 247 286 231 183 188 194 204 184 196 190 147 242 287 293 300 193 180 145 125 248 69
340 340 340 341 343 342 344 346 347 347 352 343 322 293 0 354 7 336 323 316 308 330 322 290 301 212 233 247 218 226 203 146 139 124 169 199 168 113 315 294 268 196 190 146 106 96 167
342 343 344 345 345 346 348 347 349 351 353 344 311 313 326 335 341 328 322 323 335 319 312 262 305 32 358 351 240 193 225 162 173 157 180 327 162 145 190 153 230 195 181 148 123 118 142
344 344 343 345 347 348 350 350 352 355 356 359 334 328 332 316 332 321 332 307 320 327 291 12 18 5 28 265 225 31 209 115 162 211 151 237 172 206 193 22 344 27 176 123 119 147 142
344 343 346 348 348 350 351 354 353 352 353 6 345 327 319 307 312 330 340 331 336 331 347 1 356 336 351 112 13 123 316 201 220 184 167 217 165 81 116 39 346 356 14 135 123 66 6
346 349 346 344 351 349 350 353 352 354 356 339 324 320 288 307 320 331 332 339 334 335 305 8 0 333 21 358 326 309 313 358 240 225 206 189 132 124 207 122 338 312 78 9 90 111 196
345 345 344 345 347 348 350 354 351 359 356 342 331 321 299 302 321 319 317 338 340 336 349 350 355 355 340 334 313 282 236 83 278 280 260 230 133 150 136 156 155 217 86 56 65 114 108
350 347 346 347 346 346 346 349 351 355 348 347 341 320 288 298 303 314 332 334 332 334 340 330 353 326 320 320 305 277 219 79 293 273 77 45 90 103 101 73 125 120 147 112 98 53 86
344 346 352 348 343 342 340 340 346 351 348 341 345 329 292 296 313 320 319 341 319 329 346 339 340 333 307 306 304 232 221 208 162 171 49 78 79 111 154 111 98 41 140 126 93 67 50
344 343 342 344 342 338 338 337 337 346 346 343 342 330 319 274 297 317 318 319 307 330 302 306 333 319 340 334 331 330 35 92 25 50 35 26 24 76 57 97 7 339 88 170 69 147 94
334 337 336 339 339 338 338 337 337 336 339 337 342 344 332 276 303 297 322 309 310 309 323 318 324 340 316 359 325 3 22 42 50 73 83 94 77 80 197 91 77 336 30 89 119 84 85
331 334 334 334 336 337 336 337 336 333 335 333 326 339 323 297 289 318 322 337 320 308 305 320 292 301 333 326 344 356 14 19 12 83 70 84 125 148 77 91 80 80 93 96 94 86 85
Wind_Speed_850mb
42 43 45 46 47 48 48 49 49 50 51 50 49 50 53 55 55 55 52 51 50 50 50 50 47 36 33 20 69 39 26 18 11 44 56 53 46 46 28 22 43 37 30 55 66 68 63
45 45 46 48 48 49 49 51 53 54 55 56 57 57 58 58 59 60 59 57 55 53 50 49 45 30 28 35 50 26 41 41 30 35 55 54 31 53 27 35 24 38 41 48 55 60 63
48 49 49 49 50 51 52 53 53 54 55 56 58 59 60 60 60 59 59 58 55 52 52 50 42 33 44 96 45 17 43 58 47 49 43 50 51 44 51 19 57 52 31 28 30 36 18
48 48 49 50 51 52 53 55 56 58 59 61 64 66 66 66 67 64 64 64 61 55 58 52 36 27 48 80 71 57 63 46 58 53 53 45 42 60 57 40 33 19 17 26 20 15 30
50 50 50 51 52 53 55 56 57 60 63 65 67 68 67 66 64 63 61 65 63 59 58 33 21 29 38 39 53 54 65 65 62 50 58 47 47 52 43 17 17 14 18 19 15 22 15
49 50 51 52 54 56 58 59 59 60 62 64 66 67 68 65 63 63 62 66 64 38 26 11 24 18 42 50 39 29 56 68 58 65 49 56 39 26 11 14 26 22 20 22 24 28 26
51 52 54 55 56 58 59 60 62 63 65 67 68 70 71 71 68 65 65 70 18 14 28 38 38 40 47 57 40 42 34 56 66 59 40 60 24 31 36 32 27 30 33 27 36 30 22
54 54 55 57 58 59 61 63 65 67 69 70 71 73 74 73 70 62 62 35 46 31 45 61 77 92 93 83 51 57 50 47 41 43 41 22 47 35 32 37 37 38 37 37 23 37 24
55 56 57 57 59 61 62 64 66 68 71 73 74 76 76 78 71 49 17 47 47 57 26 71 82 98 103 73 76 79 60 73 35 41 50 49 28 41 41 38 42 40 39 31 20 17 8
55 56 57 58 59 62 65 67 69 71 73 74 75 76 76 78 52 24 56 53 38 35 14 30 24 41 70 60 45 80 79 72 33 46 36 43 39 44 48 43 40 37 40 41 27 12 7
55 55 57 60 62 65 66 68 71 74 75 77 79 79 75 66 75 67 62 41 24 23 11 19 20 17 22 59 14 61 75 70 51 44 34 47 44 51 45 48 42 35 31 32 20 12 3
54 56 59 62 63 64 67 70 73 76 80 85 85 84 80 83 61 82 58 22 43 8 22 16 11 13 20 51 34 8 52 65 57 44 48 51 42 40 46 41 47 38 17 15 18 9 10
56 59 61 62 64 66 68 71 75 79 84 91 94 93 85 75 88 60 22 32 9 15 14 22 26 30 6 20 18 10 20 44 38 41 41 37 54 43 40 38 43 23 13 4 4 8 10
61 62 62 63 65 67 70 72 75 80 87 94 100 96 86 76 67 48 22 11 21 18 40 38 55 45 40 1 18 16 15 32 46 32 24 29 30 47 39 39 17 19 18 11 16 10 21
62 62 63 64 66 68 69 71 73 79 87 96 103 94 74 58 73 42 43 21 14 27 37 47 51 41 31 22 19 11 17 27 16 40 28 23 39 26 40 32 19 17 19 15 6 5 3
62 63 63 65 66 67 67 69 71 76 85 94 90 75 31 69 41 42 5 9 12 25 42 48 49 26 47 42 8 6 12 4 28 47 12 11 10 30 30 25 29 27 19 19 7 12 9
62 63 65 66 66 63 63 66 70 73 83 89 63 35 15 59 50 17 5 11 39 54 56 27 25 21 31 38 6 9 3 6 12 32 18 10 5 10 13 7 21 14 20 12 9 8 12
63 64 66 65 62 57 61 62 66 68 80 87 35 13 44 60 11 9 9 22 38 44 49 27 20 33 32 33 13 16 20 15 22 23 19 11 8 7 7 28 30 18 15 13 9 2 7
64 65 64 60 56 54 56 59 63 62 65 76 42 26 20 46 15 17 16 24 28 29 33 11 12 16 10 13 8 10 16 21 37 10 20 14 10 10 17 21 29 18 16 13 16 7 11
62 62 59 55 51 51 55 57 59 62 60 56 17 9 21 28 52 25 21 17 30 42 36 18 6 13 19 11 15 7 7 15 36 22 23 16 9 12 13 4 5 25 20 23 17 9 9
60 58 56 52 46 51 53 55 55 56 60 37 12 7 15 14 25 39 29 18 41 21 12 27 15 28 11 7 6 1 7 14 9 14 18 10 12 13 5 17 14 5 14 21 12 12 10
57 57 52 48 49 48 51 48 51 54 57 29 20 14 12 32 47 34 20 14 38 41 19 26 25 29 18 0 17 12 9 6 4 10 17 16 12 6 6 12 11 6 16 16 21 5 17
55 56 48 47 44 46 45 46 49 49 50 32 39 38 18 19 22 24 19 37 43 41 17 29 27 18 16 18 31 31 26 4 1 3 18 22 10 8 3 10 14 8 7 13 28 27 22
50 54 53 46 45 46 41 43 50 46 44 44 39 35 12 13 18 20 38 43 44 42 26 28 25 13 15 39 28 20 6 6 4 13 15 11 17 7 15 31 11 3 17 17 22 28 33
48 54 52 46 46 44 39 39 45 46 45 47 32 26 7 11 26 29 44 38 47 41 25 13 29 28 38 22 5 4 3 5 6 13 18 11 12 7 9 5 16 25 30 35 32 31 22
46 51 54 48 47 45 42 39 42 44 44 47 32 30 14 12 9 39 37 31 20 17 25 20 50 42 17 3 4 4 4 2 5 8 21 19 11 13 18 11 6 7 35 49 24 24 25
46 49 51 53 50 47 46 41 37 41 45 46 29 32 24 11 23 40 12 19 21 17 11 15 45 14 21 8 4 5 5 7 7 10 13 9 7 9 11 9 4 11 22 34 15 9 38
45 50 50 52 52 48 46 43 39 40 43 45 39 28 37 14 38 17 49 37 39 23 9 32 21 9 6 10 5 5 6 8 5 18 13 7 7 3 1 10 2 18 22 14 20 53 58
44 47 48 52 51 47 43 42 43 41 36 36 39 34 39 25 46 57 27 26 37 52 32 23 12 18 8 7 7 7 8 10 10 7 8 6 7 5 8 14 33 70 55 63 71 65 60
Wind_Direction_850mb
346 344 343 343 342 342 341 340 339 338 337 333 331 325 322 322 320 317 313 311 308 304 298 297 298 303 303 254 250 247 249 290 293 198 211 206 216 228 240 225 223 229 242 237 239 247 255
352 349 347 346 344 342 340 339 338 338 336 333 331 328 324 323 320 317 315 314 312 308 301 297 294 292 274 260 286 278 230 256 248 211 204 208 216 214 252 239 234 239 243 246 242 231 237
350 348 346 343 341 339 338 337 335 333 331 328 326 325 323 321 319 318 315 312 310 307 302 295 287 272 252 248 266 231 220 238 240 232 214 206 216 227 226 260 249 247 254 268 243 241 232
346 344 343 341 340 339 337 335 332 330 328 328 326 325 325 324 322 321 316 312 310 309 299 290 284 263 252 277 281 250 223 220 228 225 231 213 221 241 257 269 274 255 256 250 258 235 227
345 343 342 339 337 336 334 333 332 330 330 330 328 327 327 327 324 322 315 309 307 302 286 287 257 240 270 290 264 265 213 221 212 217 213 225 233 240 247 250 272 269 241 244 246 255 232
346 344 342 340 339 337 337 336 334 332 330 328 326 325 324 322 320 317 313 309 312 274 271 246 238 244 258 255 263 267 213 209 214 205 206 221 228 233 228 217 227 233 227 236 247 228 238
348 346 343 342 341 339 338 335 332 330 328 327 326 325 323 322 319 319 316 319 316 289 198 204 213 211 265 271 284 232 219 203 216 197 204 210 211 215 209 225 232 244 245 226 230 239 201
349 347 346 344 341 339 336 335 333 332 331 329 328 326 325 321 320 317 305 277 287 288 296 260 249 245 250 259 273 274 193 193 218 210 194 191 219 213 219 223 227 240 247 253 261 227 205
349 347 346 344 342 340 338 336 335 333 331 329 328 326 325 322 323 318 293 279 325 312 273 272 254 248 244 238 241 251 197 199 222 214 199 205 205 208 219 221 221 228 242 252 247 289 191
348 348 347 346 344 341 340 338 337 334 332 330 327 324 324 325 324 289 279 297 292 327 273 290 249 251 224 207 250 235 235 191 215 223 211 223 225 203 215 225 213 226 225 242 258 266 228
349 349 347 345 342 341 340 340 339 337 334 331 328 326 323 319 303 294 299 292 312 338 279 275 281 215 158 174 192 207 220 198 202 204 208 222 199 223 212 219 226 228 215 214 244 261 205
348 347 344 343 341 341 339 340 340 338 336 332 329 325 320 311 293 296 308 320 319 234 240 261 313 300 143 210 240 301 206 202 210 212 211 224 222 217 227 213 223 232 219 183 201 203 245
344 343 342 341 340 339 338 338 337 337 335 332 330 326 319 306 286 308 295 281 232 226 268 260 269 320 228 190 245 351 288 205 201 208 230 223 226 232 225 219 209 209 131 221 227 211 216
341 341 339 339 338 337 336 336 336 336 335 334 331 331 327 330 328 301 269 227 228 241 228 276 298 314 320 113 175 157 231 236 209 212 210 229 228 217 224 225 180 205 166 158 180 173 228
339 339 338 338 338 336 335 336 335 336 337 338 334 337 339 340 320 259 225 223 223 239 267 291 310 322 300 323 335 206 202 213 236 251 210 214 247 226 227 208 177 191 201 190 160 220 103
338 338 339 339 337 335 336 337 335 337 339 343 340 336 332 353 13 356 188 292 274 290 293 297 291 266 288 299 155 306 215 212 207 223 188 312 300 231 218 193 225 186 162 210 201 181 221
339 339 339 338 337 337 339 337 338 340 341 346 345 325 323 350 335 351 222 274 317 320 313 303 285 290 287 290 145 166 220 304 227 197 215 279 133 306 333 253 193 188 192 189 130 125 170
339 340 339 339 340 342 341 342 343 344 345 350 339 308 335 351 27 338 326 298 308 315 315 303 262 255 247 286 231 183 188 194 204 184 196 190 147 242 287 293 300 193 180 145 125 248 69
340 340 340 341 343 342 344 346 347 347 352 343 322 293 0 354 7 336 323 316 308 330 322 290 301 212 233 247 218 226 203 146 139 124 169 199 168 113 315 294 268 196 190 146 106 96 167
342 343 344 345 345 346 348 347 349 351 353 344 311 313 326 335 341 328 322 323 335 319 312 262 305 32 358 351 240 193 225 162 173 157 180 327 162 145 190 153 230 195 181 148 123 118 142
344 344 343 345 347 348 350 350 352 355 356 359 334 328 332 316 332 321 332 307 320 327 291 12 18 5 28 265 225 31 209 115 162 211 151 237 172 206 193 22 344 27 176 123 119 147 142
344 343 346 348 348 350 351 354 353 352 353 6 345 327 319 307 312 330 340 331 336 331 347 1 356 336 351 112 13 123 316 201 220 184 167 217 165 81 116 39 346 356 14 135 123 66 6
346 349 346 344 351 349 350 353 352 354 356 339 324 320 288 307 320 331 332 339 334 335 305 8 0 333 21 358 326 309 313 358 240 225 206 189 132 124 207 122 338 312 78 9 90 111 196
345 345 344 345 347 348 350 354 351 359 356 342 331 321 299 302 321 319 317 338 340 336 349 350 355 355 340 334 313 282 236 83 278 280 260 230 133 150 136 156 155 217 86 56 65 114 108
350 347 346 347 346 346 346 349 351 355 348 347 341 320 288 298 303 314 332 334 332 334 340 330 353 326 320 320 305 277 219 79 293 273 77 45 90 103 101 73 125 120 147 112 98 53 86
344 346 352 348 343 342 340 340 346 351 348 341 345 329 292 296 313 320 319 341 319 329 346 339 340 333 307 306 304 232 221 208 162 171 49 78 79 111 154 111 98 41 140 126 93 67 50
344 343 342 344 342 338 338 337 337 346 346 343 342 330 319 274 297 317 318 319 307 330 302 306 333 319 340 334 331 330 35 92 25 50 35 26 24 76 57 97 7 339 88 170 69 147 94
334 337 336 339 339 338 338 337 337 336 339 337 342 344 332 276 303 297 322 309 310 309 323 318 324 340 316 359 325 3 22 42 50 73 83 94 77 80 197 91 77 336 30 89 119 84 85
331 334 334 334 336 337 336 337 336 333 335 333 326 339 323 297 289 318 322 337 320 308 305 320 292 301 333 326 344 356 14 19 12 83 70 84 125 148 77 91 80 80 93 96 94 86 85